Desert Center, CA

8:31 AM PST on February 23, 2017 (GMT -0800)
Blythe

Weather History for KBLH - March, 2014

Change the Weather History Date:

Saturday, March 29, 2014

  Actual Average Record
Temperature  
Mean Temperature 69 °F -  
Max Temperature 88 °F 78 °F 96 °F (2015)
Min Temperature 51 °F 52 °F 37 °F (1972)
Cooling Degree Days 4    
Growing Degree Days 19 (Base 50)    
Moisture  
Dew Point 31 °F    
Average Humidity 25    
Maximum Humidity 41    
Minimum Humidity 9    
Precipitation  
Precipitation 0.00 in - - ()
Sea Level Pressure  
Sea Level Pressure 29.97 in    
Wind  
Wind Speed 5 mph (SSW)    
Max Wind Speed 12 mph    
Max Gust Speed -    
Visibility 10 miles    
Events      
Averages and records for this station are not official NWS values.
T = Trace of Precipitation, MM = Missing Value Source: NWS Daily Summary

Daily Weather History Graph

Daily Weather History Graph

Search for Another Location

Airport or City:

Trip Planner

Search our weather history database for the weather conditions in past years. The results will help you decide how hot, cold, wet, or windy it might be!

Date:

Astronomy

Mar. 29, 2014 Rise Set
Actual Time 6:30 AM PDT 6:57 PM PDT
Civil Twilight 6:05 AM PDT 7:22 PM PDT
Nautical Twilight 5:36 AM PDT 7:51 PM PDT
Astronomical Twilight 5:06 AM PDT 8:21 PM PDT
Moon 5:38 AM PDT (3/29) 6:08 PM PDT (3/29)
Length of Visible Light 13h 16m
Length of Day
12h 26m
Waning Crescent, 1% of the Moon is Illuminated
Mar 29
Waning Crescent
Mar 30
New
Apr 7
First Quarter
Apr 15
Full
Apr 22
Last Quarter

Hourly Weather History & Observations

Time (PDT) Temp. Dew Point Humidity Pressure Visibility Wind Dir Wind Speed Gust Speed Precip Events Conditions
12:52 AM 63.0 °F 37.9 °F 40% 30.06 in 10.0 mi West 3.5 mph - N/A   Clear
1:52 AM 55.0 °F 30.9 °F 40% 30.05 in 10.0 mi Calm Calm - N/A   Clear
2:52 AM 55.9 °F 30.0 °F 37% 30.05 in 10.0 mi WNW 5.8 mph - N/A   Clear
3:52 AM 57.0 °F 30.9 °F 37% 30.04 in 10.0 mi NNW 8.1 mph - N/A   Clear
4:52 AM 54.0 °F 30.0 °F 40% 30.05 in 10.0 mi North 6.9 mph - N/A   Clear
5:52 AM 51.1 °F 28.0 °F 41% 30.05 in 10.0 mi North 6.9 mph - N/A   Clear
6:52 AM 52.0 °F 28.0 °F 40% 30.05 in 10.0 mi NNW 3.5 mph - N/A   Clear
7:52 AM 59.0 °F 33.1 °F 38% 30.06 in 10.0 mi West 3.5 mph - N/A   Clear
8:52 AM 64.9 °F 33.1 °F 31% 30.07 in 10.0 mi South 3.5 mph - N/A   Clear
9:52 AM 69.1 °F 36.0 °F 30% 30.07 in 10.0 mi ESE 4.6 mph - N/A   Clear
10:52 AM 73.9 °F 39.0 °F 28% 30.06 in 10.0 mi ESE 4.6 mph - N/A   Clear
11:52 AM 78.1 °F 37.0 °F 23% 30.04 in 10.0 mi Calm Calm - N/A   Clear
12:52 PM 82.0 °F 26.1 °F 13% 30.00 in 10.0 mi South 8.1 mph - N/A   Clear
1:52 PM 84.0 °F 19.9 °F 9% 29.96 in 10.0 mi South 5.8 mph - N/A   Clear
2:52 PM 84.9 °F 23.0 °F 10% 29.91 in 10.0 mi SSE 8.1 mph - N/A   Clear
3:52 PM 87.1 °F 23.0 °F 10% 29.88 in 10.0 mi SE 10.4 mph - N/A   Clear
4:52 PM 86.0 °F 25.0 °F 11% 29.86 in 10.0 mi SSE 5.8 mph - N/A   Clear
5:52 PM 86.0 °F 28.0 °F 12% 29.85 in 10.0 mi SE 9.2 mph - N/A   Clear
6:52 PM 82.0 °F 35.1 °F 18% 29.84 in 10.0 mi South 9.2 mph - N/A   Clear
7:52 PM 79.0 °F 32.0 °F 18% 29.84 in 10.0 mi South 6.9 mph - N/A   Clear
8:52 PM 79.0 °F 33.1 °F 19% 29.86 in 10.0 mi SW 11.5 mph - N/A   Clear
9:52 PM 77.0 °F 33.1 °F 20% 29.86 in 10.0 mi WSW 8.1 mph - N/A   Clear
10:52 PM 75.0 °F 34.0 °F 22% 29.85 in 10.0 mi WSW 11.5 mph - N/A   Clear
11:52 PM 73.9 °F 35.1 °F 24% 29.85 in 10.0 mi SSW 6.9 mph - N/A   Clear